[[{"header":{"parameterUnit":"m.s-1","parameterCategory":1,"la1":30.2991,"la2":30.254,"lo1":-89.0895,"lo2":-89.0444,"dy":0.0017,"dx":0.0017,"nx":28,"ny":28,"refTime":"2024-05-24T03:00:00:Z","depth":0,"parameterNumber":2,"parameterNumberName":"U-component_of_WINDS"},"data":[0,0,0,0,0,0,0,0,0,0,0,0,0,0,0,0,0,0,0,0,0,0,0,0,0,0,0,0,0,0,0,0,0,0,0,0,0,0,0,0,0,0,0,0,0,0,0,0,0,0,0,0,0,0,0,0,0,0,-1.7231,-1.7232,0,-1.7367,-1.7368,-1.737,-1.7401,-1.74,-1.7399,-1.7398,-1.754,-1.7544,-1.7549,0,0,0,0,0,0,0,0,0,0,0,0,0,-1.7001,-1.7005,-1.7231,-1.7232,-1.7234,-1.7367,-1.7368,-1.737,-1.7401,-1.74,-1.7399,-1.7398,-1.7538,-1.7544,-1.7549,0,0,0,0,0,0,0,0,0,0,0,0,0,-1.7115,-1.7006,-1.723,-1.7265,-1.727,-1.7366,-1.7368,-1.7371,-1.7401,-1.74,-1.7399,-1.7397,-1.7537,-1.7543,-1.755,-1.7622,0,0,-1.7572,-1.7575,0,0,0,0,0,0,0,0,-1.7108,-1.7123,-1.7259,-1.7263,-1.7268,-1.7365,-1.7339,-1.7455,-1.7402,-1.7352,-1.7398,-1.7396,-1.7483,-1.7494,-1.7523,-1.7629,-1.7635,-1.7572,-1.7576,-1.7579,-1.7581,0,0,0,0,0,0,0,-1.71,-1.7118,-1.7285,-1.726,-1.7266,-1.7275,-1.729,-1.7361,-1.7424,-1.7356,-1.7358,-1.7374,-1.7486,-1.7516,-1.7527,-1.7637,-1.7572,-1.7578,-1.7583,-1.7585,-1.7809,-1.7811,0,0,0,0,0,0,-1.7086,-1.7111,-1.728,-1.7289,-1.7183,-1.7281,-1.7297,-1.7336,-1.7423,-1.7435,-1.7375,-1.7375,-1.7505,-1.7519,-1.7532,-1.7622,-1.7579,-1.7586,-1.759,-1.7807,-1.7809,-1.7811,0,0,0,0,0,0,-1.7081,-1.7101,-1.7275,-1.7201,-1.7223,-1.7286,-1.7329,-1.7339,-1.737,-1.7438,-1.7449,-1.7395,-1.7505,-1.7522,-1.7599,-1.7627,-1.7589,-1.7596,-1.7805,-1.7808,-1.781,-1.7803,0,0,0,0,0,0,-1.7074,-1.7099,-1.7126,-1.7201,-1.7227,-1.7339,-1.7331,-1.7343,-1.7382,-1.7383,-1.7459,-1.7471,-1.7505,-1.7589,-1.7606,-1.7636,-1.7601,-1.7803,-1.7806,-1.7809,-1.7801,-1.7805,-1.7808,0,0,0,0,0,-1.7066,-1.7119,-1.7127,-1.7148,-1.7262,-1.7341,-1.7356,-1.7394,-1.7384,-1.7412,-1.7456,-1.7468,-1.7621,-1.7596,-1.7617,-1.7649,-1.7801,-1.7805,-1.7809,-1.7799,-1.7804,-1.7808,0,0,0,0,0,0,-1.7047,-1.713,-1.714,-1.7218,-1.7272,-1.7346,-1.7383,-1.7397,-1.7456,-1.7455,-1.75,-1.7517,-1.7591,-1.7628,-1.7599,-1.7723,-1.7711,-1.7719,-1.7697,-1.7702,-1.7706,-1.7695,-1.7607,0,0,0,0,0,-1.7052,-1.7107,-1.7177,-1.724,-1.7266,-1.732,-1.7355,-1.738,-1.7438,-1.7461,-1.751,-1.7566,-1.7627,-1.7667,-1.7727,-1.7806,-1.7824,-1.7839,-1.7842,-1.7845,-1.7852,-1.7897,-1.7904,-1.7824,-1.7824,-1.7824,0,0,-1.7063,-1.7115,-1.7147,-1.7237,-1.7282,-1.734,-1.7339,-1.74,-1.7443,-1.747,-1.7546,-1.7584,-1.765,-1.7729,-1.7766,-1.7762,-1.7878,-1.785,-1.7852,-1.7857,-1.7902,-1.7909,-1.7916,-1.7827,-1.7826,-1.7826,0,0,-1.7112,-1.7157,-1.7214,-1.7259,-1.7326,-1.7361,-1.7375,-1.7446,-1.7472,-1.7549,-1.757,-1.7623,-1.7727,-1.7773,-1.7811,-1.7877,-1.7891,-1.7896,-1.7915,-1.7959,-1.7965,-1.7971,-1.7995,-1.8003,-1.7902,-1.7902,-1.7902,0,-1.7118,-1.7204,-1.7242,-1.7302,-1.7341,-1.7367,-1.7426,-1.7468,-1.7552,-1.7579,-1.7572,-1.7703,-1.775,-1.784,-1.7856,-1.7885,-1.7903,-1.7887,-1.7961,-1.7967,-1.7973,-1.7997,-1.8006,-1.7902,-1.7902,-1.7902,-1.7902,0,-1.7208,-1.7268,-1.7306,-1.7385,-1.7429,-1.7488,-1.7536,-1.7576,-1.7596,-1.7632,-1.771,-1.7766,-1.7838,-1.7861,-1.7882,-1.7955,-1.795,-1.7952,-1.794,-1.798,-1.8003,-1.8013,-1.7902,-1.7902,-1.7902,-1.7902,0,0,-1.725,-1.7348,-1.7362,-1.7398,-1.7474,-1.7522,-1.7582,-1.7652,-1.7685,-1.7742,-1.7794,-1.7882,-1.7884,-1.7926,-1.7952,-1.799,-1.804,-1.7988,-1.799,-1.7996,-1.8124,-1.8122,-1.8132,-1.8049,-1.8051,-1.8053,-1.8118,0,-1.7309,-1.7417,-1.7453,-1.7543,-1.7599,-1.7625,-1.7678,-1.773,-1.7766,-1.7819,-1.7859,-1.792,-1.7918,-1.7943,-1.7982,-1.8026,-1.8066,-1.8021,-1.8099,-1.8102,-1.8082,-1.8144,-1.8143,-1.8202,-1.8128,-1.8129,-1.813,0,-1.7393,-1.7449,-1.7545,-1.7614,-1.7639,-1.7685,-1.7752,-1.7802,-1.7863,-1.7886,-1.7933,-1.7956,-1.8021,-1.8005,-1.8096,-1.8065,-1.8099,-1.8125,-1.8128,-1.8137,-1.8119,-1.8155,-1.8222,-1.8231,-1.8145,-1.8144,-1.8143,0,-1.7414,-1.7515,-1.7585,-1.7615,-1.7697,-1.7729,-1.7765,-1.7824,-1.7863,-1.7922,-1.7948,-1.8013,-1.8049,-1.81,-1.814,-1.8125,-1.8228,-1.8215,-1.8249,-1.8248,-1.827,-1.8269,-1.8344,-1.8291,-1.8291,-1.8291,-1.8291,0,-1.7477,-1.7534,-1.7596,-1.7639,-1.7704,-1.7745,-1.7809,-1.7846,-1.7899,-1.795,-1.7976,-1.8025,-1.8075,-1.813,-1.8162,-1.8232,-1.8249,-1.827,-1.8278,-1.8268,-1.8265,-1.8291,-1.8288,-1.8293,-1.8293,-1.8292,-1.8292,0,-1.7512,-1.7556,-1.7634,-1.7704,-1.7724,-1.7769,-1.783,-1.7873,-1.7909,-1.7974,-1.7992,-1.8049,-1.8115,-1.816,-1.8245,-1.8266,-1.8343,-1.835,-1.8322,-1.8326,-1.8358,-1.8354,-1.8453,-1.8468,-1.8405,-1.8405,-1.8406,0,-1.755,-1.7595,-1.767,-1.7705,-1.7741,-1.7799,-1.7839,-1.788,-1.7921,-1.7993,-1.8028,-1.8096,-1.8152,-1.8256,-1.8306,-1.8371,-1.838,-1.841,-1.839,-1.8379,-1.8381,-1.8378,-1.8383,-1.8413,-1.8414,-1.8414,-1.8414,0,-1.7612,-1.7631,-1.7687,-1.7751,-1.7798,-1.785,-1.7903,-1.7931,-1.7982,-1.8027,-1.8094,-1.8138,-1.8224,-1.8291,-1.836,-1.8398,-1.8415,-1.842,-1.8432,-1.8422,-1.8404,-1.8415,-1.8331,-1.8418,-1.8418,-1.8417,-1.8417,-1.8417,-1.7651,-1.7691,-1.775,-1.7812,-1.7856,-1.7905,-1.7949,-1.799,-1.8046,-1.8119,-1.814,-1.821,-1.827,-1.8365,-1.8404,-1.846,-1.8457,-1.8474,-1.8478,-1.8482,-1.8482,-1.8395,-1.8472,-1.8472,-1.8472,-1.8472,-1.8472,0,-1.7715,-1.7754,-1.781,-1.7882,-1.7931,-1.7941,-1.8,-1.8041,-1.8101,-1.8155,-1.8209,-1.8287,-1.8352,-1.8406,-1.8473,-1.8507,-1.8517,-1.8524,-1.8522,-1.8531,-1.848,-1.8463,-1.8515,-1.8515,-1.8515,-1.8515,-1.8515,-1.8515,-1.7754,-1.7824,-1.785,-1.7942,-1.7981,-1.8048,-1.8081,-1.8126,-1.8169,-1.8254,-1.8308,-1.8342,-1.8396,-1.8468,-1.8528,-1.8542,-1.8566,-1.8571,-1.8587,-1.8539,-1.8534,-1.8529,-1.8514,-1.8576,-1.8576,-1.8633,-1.8634,-1.8634]},{"header":{"parameterUnit":"m.s-1","parameterCategory":1,"la1":30.2991,"la2":30.254,"lo1":-89.0895,"lo2":-89.0444,"dy":0.0017,"dx":0.0017,"nx":28,"ny":28,"refTime":"2024-05-24T03:00:00:Z","depth":0,"parameterNumber":3,"parameterNumberName":"V-component_of_WINDS"},"data":[0,0,0,0,0,0,0,0,0,0,0,0,0,0,0,0,0,0,0,0,0,0,0,0,0,0,0,0,0,0,0,0,0,0,0,0,0,0,0,0,0,0,0,0,0,0,0,0,0,0,0,0,0,0,0,0,0,0,4.7966,4.7967,0,4.8042,4.8043,4.8044,4.7981,4.7978,4.7976,4.7973,4.8046,4.805,4.8055,0,0,0,0,0,0,0,0,0,0,0,0,0,4.7762,4.7766,4.7966,4.7967,4.7968,4.8042,4.8043,4.8044,4.7981,4.7978,4.7975,4.7972,4.8045,4.805,4.8055,0,0,0,0,0,0,0,0,0,0,0,0,0,4.7845,4.7767,4.7966,4.7946,4.7945,4.8042,4.8043,4.8044,4.7982,4.7978,4.7974,4.797,4.8043,4.8049,4.8056,4.8175,0,0,4.8076,4.8079,0,0,0,0,0,0,0,0,4.7841,4.7853,4.7948,4.7947,4.7946,4.7998,4.7997,4.8088,4.7983,4.7968,4.7973,4.7968,4.8033,4.804,4.8063,4.8179,4.8182,4.8077,4.8081,4.8083,4.8085,0,0,0,0,0,0,0,4.7835,4.7849,4.7996,4.7949,4.7948,4.7931,4.7939,4.8014,4.8021,4.7969,4.7964,4.7974,4.8032,4.8057,4.8064,4.8183,4.8076,4.8082,4.8086,4.8089,4.8397,4.8401,0,0,0,0,0,0,4.7832,4.7845,4.7994,4.7998,4.7883,4.7938,4.7946,4.7985,4.802,4.8022,4.7978,4.7971,4.8047,4.8057,4.8066,4.8207,4.8083,4.809,4.8093,4.8393,4.8398,4.8403,0,0,0,0,0,0,4.7828,4.7846,4.799,4.792,4.7938,4.7946,4.799,4.7989,4.8014,4.8027,4.8028,4.8002,4.8045,4.8057,4.8148,4.8208,4.8092,4.8098,4.8388,4.8395,4.84,4.8489,0,0,0,0,0,0,4.7822,4.7845,4.7892,4.7922,4.7942,4.8073,4.7994,4.7993,4.8026,4.8018,4.805,4.8052,4.8043,4.8139,4.8155,4.8215,4.8104,4.8383,4.8391,4.8398,4.8481,4.8498,4.8512,0,0,0,0,0,4.7815,4.7913,4.7894,4.7913,4.8001,4.8077,4.8088,4.8076,4.8031,4.8077,4.8085,4.8051,4.8199,4.8149,4.8166,4.8229,4.8379,4.8389,4.8398,4.8474,4.8494,4.8512,0,0,0,0,0,0,4.7888,4.7917,4.7896,4.8007,4.804,4.8066,4.8124,4.8099,4.8144,4.8135,4.8117,4.8125,4.8221,4.8234,4.8177,4.8345,4.8281,4.8295,4.8333,4.8353,4.8368,4.8362,4.8109,0,0,0,0,0,4.7918,4.7979,4.8,4.8095,4.8113,4.8116,4.8149,4.8137,4.817,4.8183,4.8198,4.823,4.8283,4.8319,4.8369,4.8483,4.8487,4.8534,4.855,4.8563,4.8574,4.8633,4.8654,4.8434,4.8434,4.8434,0,0,4.7978,4.8001,4.8041,4.8111,4.8135,4.8196,4.8128,4.8197,4.8241,4.8193,4.828,4.8292,4.8326,4.8428,4.8474,4.8442,4.8636,4.8575,4.8585,4.859,4.8645,4.8666,4.8684,4.8441,4.8439,4.8438,0,0,4.812,4.8145,4.8226,4.8252,4.829,4.8291,4.831,4.834,4.8346,4.8434,4.8398,4.845,4.8543,4.8569,4.8594,4.8744,4.8713,4.876,4.8842,4.8899,4.8916,4.8932,4.8983,4.9002,4.8772,4.8772,4.8772,0,4.819,4.8283,4.8271,4.8342,4.8373,4.8333,4.8414,4.8439,4.849,4.8512,4.8476,4.8591,4.8611,4.8718,4.8754,4.8777,4.8797,4.8756,4.8915,4.893,4.8944,4.8993,4.9013,4.8778,4.8777,4.8776,4.8776,0,4.8367,4.8432,4.8493,4.8545,4.8582,4.8658,4.8655,4.8695,4.8679,4.8683,4.8771,4.8794,4.8848,4.8872,4.8858,4.8976,4.8955,4.8918,4.8853,4.8971,4.9016,4.9035,4.8785,4.8783,4.8782,4.878,0,0,4.8557,4.86,4.8623,4.8645,4.8683,4.8732,4.8805,4.8858,4.8891,4.8928,4.8987,4.9067,4.9032,4.906,4.9048,4.9099,4.9214,4.9055,4.9055,4.9082,4.9343,4.937,4.9392,4.9194,4.9197,4.92,4.934,0,4.8699,4.8828,4.8818,4.8938,4.8997,4.8959,4.9022,4.9051,4.9056,4.9105,4.911,4.9167,4.9117,4.9134,4.9183,4.919,4.9266,4.9179,4.9247,4.9249,4.9238,4.9417,4.9446,4.9576,4.9358,4.9361,4.9363,0,4.8882,4.8926,4.9053,4.908,4.9104,4.9162,4.9208,4.9257,4.9288,4.9288,4.932,4.9298,4.9369,4.9304,4.94,4.9342,4.9369,4.9376,4.9381,4.9386,4.9312,4.9424,4.9618,4.9637,4.9391,4.9389,4.9387,0,4.9006,4.9097,4.9183,4.9204,4.9239,4.9279,4.9296,4.9323,4.9355,4.9396,4.9416,4.9464,4.949,4.9526,4.9518,4.9471,4.9616,4.955,4.9616,4.9616,4.9647,4.9645,4.9846,4.9667,4.9667,4.9667,4.9666,0,4.9165,4.9244,4.9239,4.9293,4.9379,4.9366,4.9451,4.9461,4.9486,4.9539,4.9509,4.9559,4.9546,4.9595,4.9589,4.9668,4.9681,4.9681,4.9678,4.9683,4.9683,4.97,4.969,4.9672,4.9671,4.967,4.9669,0,4.9318,4.9319,4.941,4.9436,4.9444,4.9506,4.9527,4.9576,4.9579,4.9646,4.9661,4.9665,4.9721,4.9717,4.978,4.9775,4.9873,4.986,4.9863,4.986,4.9926,4.9919,5.0143,5.0171,4.9975,4.9977,4.9979,0,4.9419,4.9478,4.951,4.9544,4.9563,4.9619,4.9651,4.964,4.9674,4.9714,4.9758,4.9811,4.9853,4.9944,4.9952,4.9999,4.9986,5.0061,4.9993,4.9995,4.9985,4.9981,4.9986,5.0074,5.0077,5.0078,5.008,0,4.9597,4.9594,4.9643,4.9692,4.9732,4.9769,4.9804,4.9833,4.9824,4.9865,4.9922,4.9955,5.0019,5.0072,5.0117,5.0131,5.0104,5.0102,5.0119,5.0124,5.0123,5.0123,4.9898,5.0096,5.0095,5.0093,5.0093,5.0092,4.9726,4.9776,4.9806,4.9861,4.9886,4.9918,4.9965,4.9974,5.0022,5.0074,5.0064,5.0128,5.0155,5.0213,5.0232,5.028,5.0253,5.0279,5.0285,5.0291,5.0298,5.0116,5.0289,5.0288,5.0288,5.0287,5.0287,0,4.9901,4.9919,4.9969,5.0018,5.0061,5.0033,5.0068,5.0105,5.0163,5.0191,5.0233,5.0298,5.0349,5.036,5.0408,5.0445,5.0433,5.0457,5.0454,5.0457,5.0321,5.03,5.0466,5.0466,5.0466,5.0466,5.0466,5.0466,4.9998,5.0081,5.0081,5.0175,5.0191,5.0255,5.0278,5.0306,5.0329,5.0403,5.0445,5.0453,5.0474,5.0523,5.0567,5.0569,5.0587,5.0616,5.0613,5.0485,5.0467,5.045,5.043,5.0621,5.0621,5.0745,5.0746,5.0747]}]]